Location: Althorst
(53.6379°N, 10.7715°E)
Time: 16:23:20
(UTC+00:00)

ALOS - Pass Details

Date: 10 December 2019
Orbit: 683 x 685 km, 97.8° (Epoch: 28 January)

Event Time Altitude Azimuth Distance (km) Brightness Sun altitude
Rises 15:45:31 0° 171° (S) 3,041 5.9 -6.8°
Reaches altitude 10° 15:47:46 10° 174° (S) 2,130 5.1 -7.0°
Maximum altitude 15:52:25 68° 258° (WSW) 741 2.7 -7.6°
Drops below altitude 10° 15:57:06 10° 341° (NNW) 2,147 4.7 -8.3°
Sets 15:59:22 0° 344° (NNW) 3,068 5.5 -8.6°
